Time,TemperatureF,DewpointF,PressureIn,WindDirection,WindDirectionDegrees,WindSpeedMPH,WindSpeedGustMPH,Humidity,HourlyPrecipIn,Conditions,Clouds,dailyrainin,SoftwareType,DateUTC
2013-01-27 05:30:00,25.6,20.0,30.41,ESE,115,1.0,2.0,79,0.00,,,0.00,Wunderground v.1.15,2013-01-27 11:30:00,
2013-01-27 05:35:00,25.6,20.0,30.40,ESE,109,2.0,5.0,79,0.00,,,0.00,Wunderground v.1.15,2013-01-27 11:35:00,
2013-01-27 05:45:00,25.7,20.1,30.40,ESE,109,2.0,3.0,79,0.00,,,0.00,Wunderground v.1.15,2013-01-27 11:45:00,
2013-01-27 05:50:00,25.7,20.1,30.41,ESE,117,2.0,2.0,79,0.00,,,0.00,Wunderground v.1.15,2013-01-27 11:50:00,
2013-01-27 05:55:00,25.7,20.1,30.41,ESE,119,2.0,2.0,79,0.00,,,0.00,Wunderground v.1.15,2013-01-27 11:55:00,
2013-01-27 06:00:00,25.7,20.1,30.40,ESE,119,2.0,2.0,79,0.00,,,0.00,Wunderground v.1.15,2013-01-27 12:00:00,
2013-01-27 06:10:00,25.7,20.1,30.40,ESE,120,1.0,1.0,79,0.00,,,0.00,Wunderground v.1.15,2013-01-27 12:10:00,
2013-01-27 06:15:00,25.7,20.1,30.40,ESE,120,1.0,2.0,79,0.00,,,0.00,Wunderground v.1.15,2013-01-27 12:15:00,
2013-01-27 06:20:00,25.8,20.2,30.39,ESE,121,2.0,2.0,79,0.00,,,0.00,Wunderground v.1.15,2013-01-27 12:20:00,
2013-01-27 06:25:00,25.9,20.3,30.39,ESE,121,2.0,2.0,79,0.00,,,0.00,Wunderground v.1.15,2013-01-27 12:25:00,
2013-01-27 06:30:00,26.0,20.4,30.39,ESE,117,2.0,2.0,79,0.00,,,0.00,Wunderground v.1.15,2013-01-27 12:30:00,
2013-01-27 06:35:00,26.1,20.5,30.39,ESE,109,2.0,2.0,79,0.00,,,0.00,Wunderground v.1.15,2013-01-27 12:35:00,
2013-01-27 06:40:00,26.2,20.6,30.39,ESE,115,2.0,2.0,79,0.00,,,0.00,Wunderground v.1.15,2013-01-27 12:40:00,
2013-01-27 06:50:00,26.2,20.6,30.38,ESE,113,2.0,2.0,79,0.00,,,0.00,Wunderground v.1.15,2013-01-27 12:50:00,
2013-01-27 06:55:00,26.3,20.7,30.38,ESE,115,2.0,3.0,79,0.00,,,0.00,Wunderground v.1.15,2013-01-27 12:55:00,
2013-01-27 07:00:00,26.3,20.4,30.39,ESE,115,2.0,2.0,78,0.00,,,0.00,Wunderground v.1.15,2013-01-27 13:00:00,
2013-01-27 07:05:00,26.4,20.5,30.39,ESE,118,2.0,2.0,78,0.00,,,0.00,Wunderground v.1.15,2013-01-27 13:05:00,
2013-01-27 07:10:00,26.4,20.5,30.39,ESE,119,2.0,2.0,78,0.00,,,0.00,Wunderground v.1.15,2013-01-27 13:10:00,
2013-01-27 07:15:00,26.6,20.7,30.40,ESE,120,2.0,2.0,78,0.00,,,0.00,Wunderground v.1.15,2013-01-27 13:15:00,
2013-01-27 07:20:00,26.7,20.8,30.40,SSE,153,2.0,5.0,78,0.00,,,0.00,Wunderground v.1.15,2013-01-27 13:20:00,
2013-01-27 07:25:00,26.9,21.0,30.40,SSE,155,2.0,5.0,78,0.00,,,0.00,Wunderground v.1.15,2013-01-27 13:25:00,
2013-01-27 07:30:00,27.1,20.8,30.39,SE,136,3.0,3.0,77,0.00,,,0.00,Wunderground v.1.15,2013-01-27 13:30:00,
2013-01-27 07:35:00,27.2,20.9,30.39,SSE,168,3.0,3.0,77,0.00,,,0.00,Wunderground v.1.15,2013-01-27 13:35:00,
2013-01-27 07:40:00,27.2,20.9,30.39,SE,139,3.0,3.0,77,0.00,,,0.00,Wunderground v.1.15,2013-01-27 13:40:00,
2013-01-27 07:45:00,27.3,21.0,30.39,SE,137,2.0,3.0,77,0.00,,,0.00,Wunderground v.1.15,2013-01-27 13:45:00,
2013-01-27 07:55:00,27.5,21.2,30.38,SE,138,2.0,4.0,77,0.00,,,0.00,Wunderground v.1.15,2013-01-27 13:55:00,
2013-01-27 08:00:00,27.6,21.3,30.38,SE,134,2.0,3.0,77,0.00,,,0.00,Wunderground v.1.15,2013-01-27 14:00:00,
2013-01-27 08:05:00,27.7,21.4,30.38,SE,136,3.0,3.0,77,0.00,,,0.00,Wunderground v.1.15,2013-01-27 14:05:00,
2013-01-27 08:10:00,27.8,21.5,30.38,SE,132,2.0,2.0,77,0.00,,,0.00,Wunderground v.1.15,2013-01-27 14:10:00,
2013-01-27 08:15:00,27.9,21.6,30.38,SE,132,2.0,2.0,77,0.00,,,0.00,Wunderground v.1.15,2013-01-27 14:15:00,
2013-01-27 08:20:00,28.1,21.8,30.39,SE,136,2.0,2.0,77,0.00,,,0.00,Wunderground v.1.15,2013-01-27 14:20:00,
2013-01-27 08:25:00,28.2,21.6,30.39,SE,132,2.0,3.0,76,0.00,,,0.00,Wunderground v.1.15,2013-01-27 14:25:00,
2013-01-27 08:30:00,28.3,21.7,30.39,SE,134,2.0,2.0,76,0.00,,,0.00,Wunderground v.1.15,2013-01-27 14:30:00,
2013-01-27 08:35:00,28.4,21.8,30.39,SE,128,2.0,2.0,76,0.00,,,0.00,Wunderground v.1.15,2013-01-27 14:35:00,
2013-01-27 08:40:00,28.5,21.9,30.39,SSE,152,2.0,2.0,76,0.00,,,0.00,Wunderground v.1.15,2013-01-27 14:40:00,
2013-01-27 08:45:00,28.6,22.0,30.39,SSE,148,2.0,2.0,76,0.00,,,0.00,Wunderground v.1.15,2013-01-27 14:45:00,
2013-01-27 08:50:00,28.8,22.2,30.38,ESE,120,2.0,3.0,76,0.00,,,0.00,Wunderground v.1.15,2013-01-27 14:50:00,
2013-01-27 08:55:00,28.8,22.2,30.38,SE,126,2.0,3.0,76,0.00,,,0.00,Wunderground v.1.15,2013-01-27 14:55:00,
2013-01-27 09:00:00,28.9,22.0,30.39,ESE,117,2.0,2.0,75,0.00,,,0.00,Wunderground v.1.15,2013-01-27 15:00:00,
2013-01-27 09:05:00,29.0,22.4,30.39,ESE,122,2.0,3.0,76,0.00,,,0.00,Wunderground v.1.15,2013-01-27 15:05:00,
2013-01-27 09:10:00,29.2,22.6,30.38,ESE,122,2.0,2.0,76,0.00,,,0.00,Wunderground v.1.15,2013-01-27 15:10:00,
2013-01-27 09:15:00,29.4,22.5,30.38,SE,142,2.0,2.0,75,0.00,,,0.00,Wunderground v.1.15,2013-01-27 15:15:00,
2013-01-27 09:20:00,29.6,22.6,30.38,South,170,2.0,2.0,75,0.00,,,0.00,Wunderground v.1.15,2013-01-27 15:20:00,
2013-01-27 09:25:00,29.8,22.8,30.38,SE,125,2.0,2.0,75,0.00,,,0.00,Wunderground v.1.15,2013-01-27 15:25:00,
2013-01-27 09:30:00,29.9,22.6,30.39,ESE,121,2.0,2.0,74,0.00,,,0.00,Wunderground v.1.15,2013-01-27 15:30:00,
2013-01-27 09:35:00,30.1,22.8,30.39,SE,135,2.0,2.0,74,0.00,,,0.00,Wunderground v.1.15,2013-01-27 15:35:00,
2013-01-27 09:40:00,30.2,22.9,30.39,SE,134,2.0,3.0,74,0.00,,,0.00,Wunderground v.1.15,2013-01-27 15:40:00,
2013-01-27 09:45:00,30.3,23.0,30.39,SE,142,2.0,3.0,74,0.00,,,0.00,Wunderground v.1.15,2013-01-27 15:45:00,
2013-01-27 09:50:00,30.5,22.9,30.39,SSE,153,2.0,2.0,73,0.00,,,0.00,Wunderground v.1.15,2013-01-27 15:50:00,
2013-01-27 09:55:00,30.6,23.0,30.39,SE,142,2.0,3.0,73,0.00,,,0.00,Wunderground v.1.15,2013-01-27 15:55:00,
2013-01-27 10:00:00,30.8,23.5,30.39,SE,142,2.0,2.0,74,0.00,,,0.00,Wunderground v.1.15,2013-01-27 16:00:00,
2013-01-27 10:05:00,31.0,23.7,30.39,SE,142,2.0,2.0,74,0.00,,,0.00,Wunderground v.1.15,2013-01-27 16:05:00,
2013-01-27 10:10:00,31.2,23.5,30.38,SSE,147,2.0,2.0,73,0.00,,,0.00,Wunderground v.1.15,2013-01-27 16:10:00,
2013-01-27 10:15:00,31.4,23.7,30.38,SE,132,2.0,2.0,73,0.00,,,0.00,Wunderground v.1.15,2013-01-27 16:15:00,
2013-01-27 10:20:00,31.6,23.9,30.38,ESE,123,2.0,2.0,73,0.00,,,0.00,Wunderground v.1.15,2013-01-27 16:20:00,
2013-01-27 10:25:00,31.8,24.1,30.37,SE,126,2.0,3.0,73,0.00,,,0.00,Wunderground v.1.15,2013-01-27 16:25:00,
2013-01-27 10:30:00,31.9,24.2,30.37,ESE,121,2.0,4.0,73,0.00,,,0.00,Wunderground v.1.15,2013-01-27 16:30:00,
2013-01-27 10:35:00,32.1,24.4,30.36,ESE,115,2.0,4.0,73,0.00,,,0.00,Wunderground v.1.15,2013-01-27 16:35:00,
2013-01-27 10:40:00,32.2,24.5,30.36,SE,134,3.0,3.0,73,0.00,,,0.00,Wunderground v.1.15,2013-01-27 16:40:00,
2013-01-27 10:50:00,32.5,25.1,30.36,SE,127,3.0,3.0,74,0.00,,,0.00,Wunderground v.1.15,2013-01-27 16:50:00,
2013-01-27 10:55:00,32.6,25.2,30.36,SE,142,3.0,4.0,74,0.00,,,0.00,Wunderground v.1.15,2013-01-27 16:55:00,
2013-01-27 11:00:00,32.8,25.4,30.35,SSE,154,3.0,3.0,74,0.00,,,0.00,Wunderground v.1.15,2013-01-27 17:00:00,
2013-01-27 11:05:00,32.9,25.5,30.34,ESE,108,3.0,3.0,74,0.00,,,0.00,Wunderground v.1.15,2013-01-27 17:05:00,
2013-01-27 11:10:00,33.0,25.6,30.34,SE,134,3.0,3.0,74,0.00,,,0.00,Wunderground v.1.15,2013-01-27 17:10:00,
2013-01-27 11:15:00,33.0,25.3,30.34,SE,142,2.0,3.0,73,0.00,,,0.00,Wunderground v.1.15,2013-01-27 17:15:00,
2013-01-27 11:20:00,33.1,25.7,30.34,SE,140,2.0,2.0,74,0.00,,,0.00,Wunderground v.1.15,2013-01-27 17:20:00,
2013-01-27 11:25:00,33.2,25.8,30.33,South,184,2.0,2.0,74,0.00,,,0.00,Wunderground v.1.15,2013-01-27 17:25:00,
2013-01-27 11:30:00,33.3,25.6,30.32,SSE,167,2.0,2.0,73,0.00,,,0.00,Wunderground v.1.15,2013-01-27 17:30:00,
2013-01-27 11:35:00,33.5,25.8,30.33,South,180,3.0,6.0,73,0.00,,,0.00,Wunderground v.1.15,2013-01-27 17:35:00,
2013-01-27 11:40:00,33.6,25.9,30.32,SE,141,3.0,3.0,73,0.00,,,0.00,Wunderground v.1.15,2013-01-27 17:40:00,
2013-01-27 11:45:00,33.8,26.1,30.31,SE,128,3.0,3.0,73,0.00,,,0.00,Wunderground v.1.15,2013-01-27 17:45:00,
2013-01-27 11:50:00,33.9,25.8,30.30,SSE,149,3.0,4.0,72,0.00,,,0.00,Wunderground v.1.15,2013-01-27 17:50:00,
2013-01-27 11:55:00,34.2,26.1,30.30,ESE,108,3.0,5.0,72,0.00,,,0.00,Wunderground v.1.15,2013-01-27 17:55:00,
2013-01-27 12:00:00,34.5,26.4,30.29,SE,130,3.0,3.0,72,0.00,,,0.00,Wunderground v.1.15,2013-01-27 18:00:00,
2013-01-27 12:05:00,34.6,26.2,30.29,SE,133,3.0,3.0,71,0.00,,,0.00,Wunderground v.1.15,2013-01-27 18:05:00,
2013-01-27 12:10:00,34.7,26.3,30.28,ESE,115,3.0,3.0,71,0.00,,,0.00,Wunderground v.1.15,2013-01-27 18:10:00,
2013-01-27 12:15:00,34.9,26.4,30.27,ESE,107,3.0,3.0,71,0.00,,,0.00,Wunderground v.1.15,2013-01-27 18:15:00,
2013-01-27 12:20:00,35.1,26.3,30.26,SE,137,3.0,3.0,70,0.00,,,0.00,Wunderground v.1.15,2013-01-27 18:20:00,
2013-01-27 12:30:00,35.4,26.2,30.26,SE,128,3.0,3.0,69,0.00,,,0.00,Wunderground v.1.15,2013-01-27 18:30:00,
2013-01-27 12:35:00,35.6,26.4,30.25,SE,127,3.0,3.0,69,0.00,,,0.00,Wunderground v.1.15,2013-01-27 18:35:00,
2013-01-27 12:40:00,35.7,26.2,30.25,SE,140,3.0,3.0,68,0.00,,,0.00,Wunderground v.1.15,2013-01-27 18:40:00,
2013-01-27 12:45:00,35.7,26.2,30.25,ESE,109,3.0,3.0,68,0.00,,,0.00,Wunderground v.1.15,2013-01-27 18:45:00,
2013-01-27 12:50:00,35.6,26.1,30.24,ESE,113,3.0,5.0,68,0.00,,,0.00,Wunderground v.1.15,2013-01-27 18:50:00,
2013-01-27 12:55:00,35.6,26.1,30.24,ESE,103,3.0,6.0,68,0.00,,,0.00,Wunderground v.1.15,2013-01-27 18:55:00,
2013-01-27 13:00:00,35.6,26.1,30.24,ESE,120,3.0,3.0,68,0.00,,,0.00,Wunderground v.1.15,2013-01-27 19:00:00,
2013-01-27 13:10:00,35.7,26.2,30.22,SE,134,3.0,3.0,68,0.00,,,0.00,Wunderground v.1.15,2013-01-27 19:10:00,
2013-01-27 13:15:00,35.8,26.3,30.22,ESE,122,3.0,3.0,68,0.00,,,0.00,Wunderground v.1.15,2013-01-27 19:15:00,
2013-01-27 13:20:00,35.9,26.4,30.22,ESE,114,3.0,3.0,68,0.00,,,0.00,Wunderground v.1.15,2013-01-27 19:20:00,
2013-01-27 13:25:00,35.9,27.4,30.22,ESE,111,2.0,3.0,71,0.00,,,0.00,Wunderground v.1.15,2013-01-27 19:25:00,
2013-01-27 13:30:00,35.9,27.4,30.21,ESE,111,2.0,4.0,71,0.00,,,0.00,Wunderground v.1.15,2013-01-27 19:30:00,
2013-01-27 13:35:00,35.9,27.4,30.20,East,97,3.0,4.0,71,0.00,,,0.00,Wunderground v.1.15,2013-01-27 19:35:00,
2013-01-27 13:40:00,36.0,27.5,30.20,ESE,121,3.0,3.0,71,0.00,,,0.00,Wunderground v.1.15,2013-01-27 19:40:00,
2013-01-27 13:45:00,36.0,27.8,30.20,SE,130,3.0,3.0,72,0.00,,,0.00,Wunderground v.1.15,2013-01-27 19:45:00,
2013-01-27 13:50:00,35.9,27.7,30.20,SE,128,3.0,3.0,72,0.00,,,0.00,Wunderground v.1.15,2013-01-27 19:50:00,
2013-01-27 13:55:00,35.9,27.7,30.20,SE,124,2.0,6.0,72,0.00,,,0.00,Wunderground v.1.15,2013-01-27 19:55:00,
2013-01-27 14:00:00,36.0,27.8,30.19,ESE,117,2.0,2.0,72,0.00,,,0.00,Wunderground v.1.15,2013-01-27 20:00:00,
2013-01-27 14:05:00,36.0,28.2,30.20,SE,128,2.0,2.0,73,0.00,,,0.00,Wunderground v.1.15,2013-01-27 20:05:00,
2013-01-27 14:10:00,35.8,28.6,30.19,ESE,108,2.0,2.0,75,0.00,,,0.00,Wunderground v.1.15,2013-01-27 20:10:00,
2013-01-27 14:15:00,35.6,28.8,30.18,ESE,104,2.0,2.0,76,0.00,,,0.00,Wunderground v.1.15,2013-01-27 20:15:00,
2013-01-27 14:20:00,35.4,29.2,30.18,ESE,105,2.0,2.0,78,0.00,,,0.00,Wunderground v.1.15,2013-01-27 20:20:00,
2013-01-27 14:30:00,35.2,29.0,30.20,ESE,117,2.0,2.0,78,0.00,,,0.00,Wunderground v.1.15,2013-01-27 20:30:00,
2013-01-27 14:35:00,35.1,29.2,30.19,SE,126,2.0,2.0,79,0.00,,,0.00,Wunderground v.1.15,2013-01-27 20:35:00,
2013-01-27 14:40:00,34.9,29.7,30.18,SE,126,2.0,3.0,81,0.00,,,0.00,Wunderground v.1.15,2013-01-27 20:40:00,
2013-01-27 14:45:00,34.7,29.8,30.17,ESE,123,2.0,3.0,82,0.00,,,0.00,Wunderground v.1.15,2013-01-27 20:45:00,
2013-01-27 14:50:00,34.6,30.0,30.17,ESE,115,2.0,2.0,83,0.00,,,0.00,Wunderground v.1.15,2013-01-27 20:50:00,
2013-01-27 14:55:00,34.5,29.9,30.18,SSE,148,2.0,5.0,83,0.00,,,0.00,Wunderground v.1.15,2013-01-27 20:55:00,
2013-01-27 15:00:00,34.4,30.1,30.19,SE,137,2.0,3.0,84,0.00,,,0.00,Wunderground v.1.15,2013-01-27 21:00:00,
2013-01-27 15:10:00,34.3,30.3,30.19,SE,140,2.0,2.0,85,0.00,,,0.00,Wunderground v.1.15,2013-01-27 21:10:00,
2013-01-27 15:15:00,34.2,30.4,30.18,SE,136,2.0,2.0,86,0.00,,,0.00,Wunderground v.1.15,2013-01-27 21:15:00,
2013-01-27 15:20:00,34.2,30.7,30.18,ESE,107,2.0,3.0,87,0.00,,,0.00,Wunderground v.1.15,2013-01-27 21:20:00,
2013-01-27 15:25:00,34.1,30.6,30.18,ESE,108,2.0,3.0,87,0.00,,,0.00,Wunderground v.1.15,2013-01-27 21:25:00,
2013-01-27 15:30:00,34.1,30.6,30.18,ESE,103,2.0,2.0,87,0.00,,,0.00,Wunderground v.1.15,2013-01-27 21:30:00,
2013-01-27 15:35:00,34.1,30.9,30.18,ESE,121,2.0,2.0,88,0.00,,,0.00,Wunderground v.1.15,2013-01-27 21:35:00,
2013-01-27 15:40:00,34.1,30.9,30.19,SE,135,2.0,3.0,88,0.00,,,0.00,Wunderground v.1.15,2013-01-27 21:40:00,
2013-01-27 15:45:00,34.0,31.1,30.19,ESE,111,2.0,3.0,89,0.00,,,0.00,Wunderground v.1.15,2013-01-27 21:45:00,
2013-01-27 15:50:00,33.9,31.3,30.18,SE,124,2.0,2.0,90,0.00,,,0.00,Wunderground v.1.15,2013-01-27 21:50:00,
2013-01-27 15:55:00,33.8,31.2,30.18,ESE,115,2.0,4.0,90,0.00,,,0.00,Wunderground v.1.15,2013-01-27 21:55:00,
2013-01-27 16:00:00,33.7,31.4,30.17,ESE,114,2.0,3.0,91,0.00,,,0.00,Wunderground v.1.15,2013-01-27 22:00:00,
2013-01-27 16:05:00,33.7,31.4,30.17,ESE,118,2.0,3.0,91,0.00,,,0.00,Wunderground v.1.15,2013-01-27 22:05:00,
2013-01-27 16:10:00,33.6,31.5,30.18,SE,126,2.0,3.0,92,0.00,,,0.00,Wunderground v.1.15,2013-01-27 22:10:00,
2013-01-27 16:15:00,33.6,31.5,30.17,ESE,111,2.0,3.0,92,0.00,,,0.00,Wunderground v.1.15,2013-01-27 22:15:00,
2013-01-27 16:20:00,33.6,31.5,30.19,SE,138,2.0,2.0,92,0.00,,,0.00,Wunderground v.1.15,2013-01-27 22:20:00,
2013-01-27 16:25:00,33.6,31.5,30.18,SE,133,2.0,2.0,92,0.00,,,0.00,Wunderground v.1.15,2013-01-27 22:25:00,
2013-01-27 16:30:00,33.6,31.8,30.17,ESE,118,1.0,1.0,93,0.00,,,0.00,Wunderground v.1.15,2013-01-27 22:30:00,
2013-01-27 16:35:00,33.5,31.7,30.16,ESE,123,2.0,2.0,93,0.00,,,0.00,Wunderground v.1.15,2013-01-27 22:35:00,
2013-01-27 16:40:00,33.5,31.7,30.15,ESE,108,2.0,2.0,93,0.00,,,0.00,Wunderground v.1.15,2013-01-27 22:40:00,
2013-01-27 16:45:00,33.5,31.7,30.15,ESE,123,2.0,2.0,93,0.00,,,0.00,Wunderground v.1.15,2013-01-27 22:45:00,
2013-01-27 16:50:00,33.5,31.7,30.14,SE,129,2.0,2.0,93,0.00,,,0.00,Wunderground v.1.15,2013-01-27 22:50:00,
2013-01-27 16:55:00,33.5,31.7,30.14,SE,132,2.0,3.0,93,0.00,,,0.00,Wunderground v.1.15,2013-01-27 22:55:00,
2013-01-27 17:00:00,33.5,31.7,30.14,East,100,2.0,2.0,93,0.00,,,0.00,Wunderground v.1.15,2013-01-27 23:00:00,
2013-01-27 17:05:00,33.5,31.7,30.14,ESE,120,2.0,2.0,93,0.00,,,0.00,Wunderground v.1.15,2013-01-27 23:05:00,
2013-01-27 17:10:00,33.5,31.7,30.13,SE,130,2.0,2.0,93,0.00,,,0.00,Wunderground v.1.15,2013-01-27 23:10:00,
2013-01-27 17:15:00,33.5,31.7,30.13,ESE,112,2.0,2.0,93,0.00,,,0.00,Wunderground v.1.15,2013-01-27 23:15:00,
2013-01-27 17:20:00,33.5,31.7,30.13,ESE,107,2.0,2.0,93,0.00,,,0.00,Wunderground v.1.15,2013-01-27 23:20:00,
2013-01-27 17:25:00,33.6,31.8,30.13,ESE,107,2.0,2.0,93,0.00,,,0.00,Wunderground v.1.15,2013-01-27 23:25:00,
2013-01-27 17:30:00,33.6,31.8,30.13,SE,132,2.0,2.0,93,0.00,,,0.00,Wunderground v.1.15,2013-01-27 23:30:00,
2013-01-27 17:35:00,33.7,31.9,30.12,ESE,123,2.0,3.0,93,0.00,,,0.00,Wunderground v.1.15,2013-01-27 23:35:00,
2013-01-27 17:40:00,33.7,32.2,30.11,ESE,113,3.0,3.0,94,0.00,,,0.00,Wunderground v.1.15,2013-01-27 23:40:00,
2013-01-27 17:45:00,33.7,31.9,30.10,ESE,116,2.0,3.0,93,0.00,,,0.00,Wunderground v.1.15,2013-01-27 23:45:00,
2013-01-27 17:50:00,33.7,32.2,30.10,SE,129,2.0,4.0,94,0.00,,,0.00,Wunderground v.1.15,2013-01-27 23:50:00,
2013-01-27 17:55:00,33.7,32.2,30.10,ESE,106,3.0,5.0,94,0.00,,,0.00,Wunderground v.1.15,2013-01-27 23:55:00,
2013-01-27 18:00:00,33.8,32.3,30.10,SE,130,2.0,2.0,94,0.00,,,0.00,Wunderground v.1.15,2013-01-28 00:00:00,
2013-01-27 18:10:00,33.9,32.4,30.09,SE,128,3.0,3.0,94,0.00,,,0.00,Wunderground v.1.15,2013-01-28 00:10:00,
2013-01-27 18:15:00,33.9,32.4,30.09,SE,136,3.0,3.0,94,0.00,,,0.00,Wunderground v.1.15,2013-01-28 00:15:00,
2013-01-27 18:20:00,34.0,32.5,30.09,SE,137,3.0,3.0,94,0.00,,,0.00,Wunderground v.1.15,2013-01-28 00:20:00,
2013-01-27 18:25:00,34.1,32.6,30.09,SSE,163,3.0,4.0,94,0.00,,,0.00,Wunderground v.1.15,2013-01-28 00:25:00,
2013-01-27 18:35:00,34.3,32.5,30.08,East,94,3.0,4.0,93,0.00,,,0.00,Wunderground v.1.15,2013-01-28 00:35:00,
2013-01-27 18:40:00,34.4,32.9,30.07,East,97,3.0,5.0,94,0.00,,,0.00,Wunderground v.1.15,2013-01-28 00:40:00,
2013-01-27 18:45:00,34.5,33.0,30.08,SE,128,2.0,5.0,94,0.00,,,0.00,Wunderground v.1.15,2013-01-28 00:45:00,
2013-01-27 18:50:00,34.6,33.1,30.07,SSE,157,3.0,3.0,94,0.00,,,0.00,Wunderground v.1.15,2013-01-28 00:50:00,
2013-01-27 18:55:00,34.7,32.9,30.07,SE,128,3.0,4.0,93,0.00,,,0.00,Wunderground v.1.15,2013-01-28 00:55:00,
2013-01-27 19:00:00,34.8,33.0,30.07,ESE,117,3.0,4.0,93,0.00,,,0.00,Wunderground v.1.15,2013-01-28 01:00:00,
2013-01-27 19:05:00,34.8,33.0,30.06,ESE,121,3.0,4.0,93,0.00,,,0.00,Wunderground v.1.15,2013-01-28 01:05:00,
2013-01-27 19:10:00,34.9,33.1,30.06,SE,129,3.0,3.0,93,0.00,,,0.00,Wunderground v.1.15,2013-01-28 01:10:00,
2013-01-27 19:15:00,34.9,33.1,30.06,SE,128,3.0,3.0,93,0.00,,,0.00,Wunderground v.1.15,2013-01-28 01:15:00,
2013-01-27 19:20:00,34.9,33.3,30.05,ESE,122,3.0,3.0,94,0.00,,,0.00,Wunderground v.1.15,2013-01-28 01:20:00,
2013-01-27 19:25:00,34.9,33.3,30.05,SE,137,4.0,4.0,94,0.00,,,0.00,Wunderground v.1.15,2013-01-28 01:25:00,
2013-01-27 19:30:00,35.1,33.5,30.05,East,93,4.0,5.0,94,0.00,,,0.00,Wunderground v.1.15,2013-01-28 01:30:00,
2013-01-27 19:35:00,35.1,33.5,30.04,SE,134,3.0,5.0,94,0.00,,,0.00,Wunderground v.1.15,2013-01-28 01:35:00,
2013-01-27 19:40:00,35.3,33.7,30.05,ESE,123,3.0,3.0,94,0.00,,,0.00,Wunderground v.1.15,2013-01-28 01:40:00,
2013-01-27 19:50:00,35.5,34.2,30.04,ESE,110,3.0,3.0,95,0.00,,,0.00,Wunderground v.1.15,2013-01-28 01:50:00,
2013-01-27 19:55:00,35.6,34.3,30.05,SSW,199,3.0,7.0,95,0.00,,,0.00,Wunderground v.1.15,2013-01-28 01:55:00,
2013-01-27 20:00:00,35.8,34.5,30.05,SSE,167,3.0,4.0,95,0.00,,,0.00,Wunderground v.1.15,2013-01-28 02:00:00,
2013-01-27 20:05:00,35.9,34.6,30.05,SE,140,4.0,6.0,95,0.00,,,0.00,Wunderground v.1.15,2013-01-28 02:05:00,
2013-01-27 20:10:00,36.1,34.8,30.05,SSE,157,4.0,4.0,95,0.00,,,0.00,Wunderground v.1.15,2013-01-28 02:10:00,
2013-01-27 20:15:00,36.2,34.9,30.05,SE,132,4.0,4.0,95,0.00,,,0.00,Wunderground v.1.15,2013-01-28 02:15:00,
2013-01-27 20:20:00,36.2,34.9,30.04,SE,138,3.0,3.0,95,0.00,,,0.00,Wunderground v.1.15,2013-01-28 02:20:00,
2013-01-27 20:25:00,36.3,35.0,30.03,ESE,119,3.0,3.0,95,0.00,,,0.00,Wunderground v.1.15,2013-01-28 02:25:00,
2013-01-27 20:30:00,36.3,35.0,30.03,SSW,207,3.0,4.0,95,0.00,,,0.00,Wunderground v.1.15,2013-01-28 02:30:00,
2013-01-27 20:35:00,36.3,35.0,30.03,SE,136,2.0,4.0,95,0.00,,,0.00,Wunderground v.1.15,2013-01-28 02:35:00,
2013-01-27 20:40:00,36.5,35.2,30.04,SSE,148,3.0,3.0,95,0.00,,,0.00,Wunderground v.1.15,2013-01-28 02:40:00,
2013-01-27 20:45:00,36.7,35.7,30.04,SE,132,3.0,3.0,96,0.00,,,0.00,Wunderground v.1.15,2013-01-28 02:45:00,
2013-01-27 20:50:00,36.9,35.9,30.03,SE,140,3.0,3.0,96,0.00,,,0.00,Wunderground v.1.15,2013-01-28 02:50:00,
2013-01-27 20:55:00,36.9,35.9,30.02,SE,134,3.0,8.0,96,0.00,,,0.00,Wunderground v.1.15,2013-01-28 02:55:00,